IK5NLA Vaiano IT current weather conditions

sailwx.info

Wind from 327 at 1 knots

Air temperature 17.2° C
Dewpoint 9.1° C

Last reported at 2016-May-03 13:42 UTC.
Time now 2016-May-03 14:20 UTC

Location: N 43°58' E 011°06'.
View on Google Maps.

See reports from other nearby stations

  
Tides and Currents Weather Stations Pressure Air Temp Water Temp Dewpoint Dewpoint Depression Visibility Wind Speed Wind Dir Waves Ship Positions
date/time (UTC)wind fromknots sea level pressurealtimeterstation pressurevisibilityair tempwater tempwave heightnotes
2016-May-03 13:42 327 1 17.2
2016-May-03 13:36 236 1 17.2
2016-May-03 13:32 355 1 17.8
2016-May-03 13:26 219 1 17.8
2016-May-03 13:21 207 1 17.8
2016-May-03 13:16 213 0 18.3
2016-May-03 13:11 223 18.3
2016-May-03 13:06 110 18.3
2016-May-03 13:01 110 0 17.8
2016-May-03 12:46 079 1 18.3
2016-May-03 12:41 152 1 18.3
2016-May-03 12:36 111 2 18.3
2016-May-03 12:01 087 2 18.3
2016-May-03 11:36 118 3 19.4
2016-May-03 11:21 092 3 18.3
2016-May-03 11:16 088 4 18.3
2016-May-03 11:11 094 5 18.3
2016-May-03 11:06 078 3 18.3
2016-May-03 10:46 076 5 17.8
2016-May-03 10:41 087 5 18.3
2016-May-03 10:37 075 5 18.3
2016-May-03 10:16 093 5 17.8
2016-May-03 10:06 088 4 17.8
2016-May-03 09:51 074 5 17.2
2016-May-03 09:31 046 5 17.2
2016-May-03 09:21 067 5 17.2
2016-May-03 09:11 079 6 17.2
2016-May-03 09:06 078 6 17.2
2016-May-03 09:02 085 6 17.2
2016-May-03 08:56 059 6 17.2
2016-May-03 08:51 064 6 16.7
2016-May-03 08:41 070 6 17.2
2016-May-03 08:31 063 6 17.2
2016-May-03 08:26 084 6 17.2
2016-May-03 08:21 074 6 16.7
2016-May-03 08:16 069 5 17.2
2016-May-03 08:06 099 6 16.7
2016-May-03 08:01 080 5 16.7
2016-May-03 07:56 098 5 16.7
2016-May-03 07:51 078 5 16.7
2016-May-03 07:46 360 5 16.7
2016-May-03 07:41 103 4 16.7
2016-May-03 07:36 081 3 16.7
2016-May-03 07:31 066 4 16.1
2016-May-03 07:26 044 3 16.1
2016-May-03 07:21 083 3 16.1
2016-May-03 07:01 118 2 16.1
2016-May-03 06:56 120 2 16.1
2016-May-03 06:51 082 3 16.1
2016-May-03 06:41 076 2 16.1
2016-May-03 06:36 051 2 16.1
2016-May-03 06:31 074 2 16.1
2016-May-03 06:21 243 2 15.6
2016-May-03 06:16 088 2 15.6
2016-May-03 06:11 344 2 15.0
2016-May-03 06:06 033 3 15.0
2016-May-03 06:02 088 3 15.0
2016-May-03 05:56 013 3 15.0
2016-May-03 05:31 078 4 13.9
2016-May-03 05:26 059 3 13.9
2016-May-03 05:21 019 3 13.9
2016-May-03 05:16 128 1 13.3
2016-May-03 05:11 061 1 13.3
2016-May-03 05:01 076 0 12.8
2016-May-03 04:56 091 0 12.8
2016-May-03 04:46 091 0 12.8
2016-May-03 04:36 315 2 12.8
2016-May-03 04:31 059 1 12.8
2016-May-03 04:26 323 1 12.2
2016-May-03 04:22 046 1 12.2
2016-May-03 04:16 119 1 12.2
2016-May-03 04:11 062 0 12.2
2016-May-03 04:06 119 0 12.2
2016-May-03 04:01 115 1 12.2
2016-May-03 03:56 037 0 11.7
2016-May-03 03:31 281 11.1
2016-May-03 03:26 275 11.1
2016-May-03 03:16 336 11.1
2016-May-03 03:11 340 11.1
2016-May-03 03:06 169 0 11.1
2016-May-03 03:01 088 0 11.7
2016-May-03 02:51 099 0 11.7
2016-May-03 02:46 223 0 11.7
2016-May-03 02:41 012 0 11.7
2016-May-03 02:26 227 11.1
2016-May-03 02:21 316 11.1
2016-May-03 02:11 327 11.7
2016-May-03 02:06 328 0 11.7
2016-May-03 02:01 069 11.7
2016-May-03 01:51 099 0 11.7
2016-May-03 01:31 059 0 11.7
2016-May-03 01:21 038 0 11.7
2016-May-03 01:11 011 0 11.7
2016-May-03 00:51 105 1 12.2
2016-May-03 00:46 315 1 12.2
2016-May-03 00:31 099 1 12.2
2016-May-03 00:16 117 3 12.2
2016-May-02 23:46 028 3 12.2
2016-May-02 23:41 061 4 12.2
2016-May-02 23:21 026 4 12.2
2016-May-02 23:06 083 6 12.2
2016-May-02 22:46 095 6 12.2
2016-May-02 22:26 080 6 12.2
2016-May-02 22:21 084 7 12.2
2016-May-02 22:11 063 6 12.2
2016-May-02 22:06 083 6 12.2
2016-May-02 22:01 090 6 12.2
2016-May-02 21:46 056 6 12.2
2016-May-02 21:31 134 6 12.2
2016-May-02 21:16 080 6 12.2
2016-May-02 21:11 056 6 12.2
2016-May-02 21:06 082 6 12.2
2016-May-02 20:56 071 6 12.2
2016-May-02 20:51 098 7 12.2
2016-May-02 20:46 063 9 12.2
2016-May-02 20:41 064 10 12.2
2016-May-02 20:36 064 9 12.2
2016-May-02 20:26 071 8 12.8
2016-May-02 20:21 090 9 12.8
2016-May-02 20:16 077 10 12.8
2016-May-02 20:01 101 11 12.8
2016-May-02 19:41 055 13 12.2
2016-May-02 19:36 064 12 12.2
2016-May-02 19:26 076 11 12.2
2016-May-02 19:21 114 11 12.2
2016-May-02 19:11 086 12 12.2
2016-May-02 19:06 063 10 12.2
2016-May-02 18:56 109 10 12.2
2016-May-02 18:41 090 10 12.2
2016-May-02 18:36 082 10 12.2
2016-May-02 18:16 077 9 12.2
2016-May-02 18:11 059 8 12.2
2016-May-02 18:02 071 4 11.7
2016-May-02 17:56 105 4 11.7
2016-May-02 17:46 046 6 11.7
2016-May-02 17:41 092 6 11.7
2016-May-02 17:31 011 3 11.7
2016-May-02 17:26 044 3 11.7
2016-May-02 17:11 091 6 12.2
2016-May-02 17:01 060 6 12.2
2016-May-02 16:51 067 6 12.2
2016-May-02 16:41 064 5 12.2
2016-May-02 16:31 071 6 12.2
2016-May-02 16:26 012 7 12.8
2016-May-02 16:21 057 6 12.8
2016-May-02 16:11 033 6 12.8
2016-May-02 16:06 082 6 12.8
2016-May-02 16:01 053 5 12.8
2016-May-02 15:56 046 5 12.8
2016-May-02 15:36 029 5 12.8
2016-May-02 15:16 059 4 12.2
2016-May-02 15:11 032 5 12.2
2016-May-02 15:01 071 4 12.2
2016-May-02 14:51 349 2 12.2
2016-May-02 14:41 061 3 12.2
2016-May-02 14:36 094 4 12.2
2016-May-02 14:31 005 5 12.2
2016-May-02 14:16 015 4 12.2
2016-May-02 14:01 087 6 11.7
2016-May-02 13:56 005 6 12.2
2016-May-02 13:51 022 4 12.2
2016-May-02 13:41 080 6 11.7
2016-May-02 13:26 067 6 12.2
2016-May-02 13:06 067 6 12.8
2016-May-02 13:01 055 6 12.8
2016-May-02 12:56 126 6 12.8
2016-May-02 12:41 306 6 12.2
2016-May-02 12:36 087 7 11.7
2016-May-02 12:26 057 6 11.7
2016-May-02 12:22 046 6 11.7
2016-May-02 12:16 090 7 12.2
2016-May-02 12:11 038 6 12.2
2016-May-02 12:06 076 7 12.2
2016-May-02 12:01 075 7 11.7
2016-May-02 11:56 103 9 12.2
2016-May-02 11:47 074 7 12.2
2016-May-02 11:41 030 6 12.2
2016-May-02 11:36 017 7 11.7
2016-May-02 11:31 081 7 11.1
2016-May-02 11:21 017 7 11.1
2016-May-02 11:16 072 8 10.6
2016-May-02 11:11 071 8 10.6
2016-May-02 11:06 094 8 10.0
2016-May-02 11:01 072 8 10.0
2016-May-02 10:51 067 8 10.0
2016-May-02 10:46 086 7 10.0
2016-May-02 10:41 105 7 10.0
2016-May-02 10:26 071 8 10.6
2016-May-02 10:21 048 7 10.6
2016-May-02 10:01 085 7 10.6
2016-May-02 09:56 115 6 10.6
2016-May-02 09:46 093 7 10.6
2016-May-02 09:41 083 6 10.6
2016-May-02 09:11 046 6 10.0
2016-May-02 09:01 036 7 10.0
2016-May-02 08:46 078 7 10.0
2016-May-02 08:31 094 7 10.0
2016-May-02 08:26 075 7 10.0
2016-May-02 08:16 074 6 10.0
2016-May-02 08:11 057 6 10.0
2016-May-02 08:06 028 6 10.6
2016-May-02 07:56 092 7 10.0
2016-May-02 07:51 061 7 10.0
2016-May-02 07:46 107 6 10.0
2016-May-02 07:36 055 5 9.4
2016-May-02 07:26 086 5 8.9
2016-May-02 07:21 057 5 8.9
2016-May-02 07:16 115 4 8.9
2016-May-02 07:11 067 3 8.9
2016-May-02 07:06 098 5 8.9
2016-May-02 07:01 123 5 8.9
2016-May-02 06:56 065 4 8.9
2016-May-02 06:46 061 5 8.9
2016-May-02 06:41 111 5 8.9
2016-May-02 06:31 060 5 8.9
2016-May-02 06:26 020 5 8.9
2016-May-02 06:21 113 6 8.9
2016-May-02 06:16 064 7 8.9
2016-May-02 06:11 034 6 8.9
2016-May-02 06:01 038 6 8.9
2016-May-02 05:51 068 6 8.9
2016-May-02 05:46 360 6 8.9
2016-May-02 05:36 051 3 8.9
2016-May-02 05:31 360 3 8.9
2016-May-02 05:26 066 4 8.9
2016-May-02 05:16 033 4 8.9
2016-May-02 05:11 095 5 8.9
2016-May-02 05:06 033 5 8.9
2016-May-02 05:01 013 4 8.9
2016-May-02 04:51 052 5 9.4
2016-May-02 04:46 072 5 9.4
2016-May-02 04:41 038 2 9.4
2016-May-02 04:31 044 3 9.4
2016-May-02 04:26 071 2 9.4
2016-May-02 04:21 113 2 9.4
2016-May-02 04:11 095 2 9.4
2016-May-02 03:46 103 3 9.4
2016-May-02 03:36 072 2 9.4
2016-May-02 03:31 014 2 9.4
2016-May-02 03:26 084 2 9.4
2016-May-02 03:16 118 3 9.4
2016-May-02 03:11 245 4 9.4
2016-May-02 03:01 055 3 8.9
2016-May-02 02:51 029 1 8.9
2016-May-02 02:36 063 2 8.9
2016-May-02 02:31 070 3 8.9
2016-May-02 02:26 048 3 8.9
2016-May-02 02:16 057 3 8.9
2016-May-02 02:11 082 4 8.9
2016-May-02 02:01 029 4 9.4
2016-May-02 01:56 069 4 9.4
2016-May-02 01:41 074 6 9.4
2016-May-02 01:31 079 5 9.4
2016-May-02 01:26 067 5 9.4
2016-May-02 01:21 068 4 9.4
2016-May-02 01:11 056 3 9.4
2016-May-02 00:56 114 2 8.9
2016-May-02 00:51 350 2 9.4
2016-May-02 00:36 042 4 9.4
2016-May-02 00:31 081 2 9.4
2016-May-02 00:26 096 3 9.4
2016-May-02 00:16 024 1 9.4
2016-May-02 00:11 149 1 9.4
2016-May-02 00:01 148 1 9.4
2016-May-01 23:56 051 1 9.4
2016-May-01 23:51 014 2 9.4
2016-May-01 23:41 082 1 9.4
2016-May-01 23:36 121 2 9.4
2016-May-01 23:06 048 4 9.4
2016-May-01 23:01 064 3 9.4
2016-May-01 22:56 026 2 9.4
2016-May-01 22:46 360 4 9.4
2016-May-01 22:41 103 5 9.4
2016-May-01 22:36 016 6 9.4
2016-May-01 22:26 029 3 9.4
2016-May-01 22:16 080 2 9.4
2016-May-01 22:06 032 4 9.4
2016-May-01 21:56 076 3 9.4
2016-May-01 21:51 029 4 9.4
2016-May-01 21:46 074 4 9.4
2016-May-01 21:36 060 5 9.4
2016-May-01 21:31 033 5 9.4
2016-May-01 21:26 013 5 9.4
2016-May-01 21:21 091 5 9.4
2016-May-01 21:16 044 4 9.4
2016-May-01 20:56 069 6 9.4
2016-May-01 20:46 090 6 9.4
2016-May-01 20:31 095 5 9.4
2016-May-01 20:26 074 5 9.4
2016-May-01 20:21 071 5 9.4
2016-May-01 20:16 056 4 9.4
2016-May-01 20:11 092 4 9.4
2016-May-01 20:01 067 4 9.4
2016-May-01 19:56 075 5 9.4
2016-May-01 19:41 067 3 9.4
2016-May-01 19:36 113 3 9.4
2016-May-01 19:31 032 3 9.4
2016-May-01 19:16 069 2 9.4
2016-May-01 19:11 118 3 9.4
2016-May-01 19:06 076 5 9.4
2016-May-01 19:01 060 5 9.4
2016-May-01 18:56 141 5 9.4
2016-May-01 18:51 087 6 9.4
2016-May-01 18:46 059 6 9.4
2016-May-01 18:16 077 3 9.4
2016-May-01 18:11 360 3 9.4
2016-May-01 18:06 074 2 9.4
2016-May-01 18:01 059 3 9.4
2016-May-01 17:51 360 4 9.4
2016-May-01 17:46 052 4 9.4
2016-May-01 17:41 029 4 10.0
2016-May-01 17:36 087 4 10.0
2016-May-01 17:31 032 5 10.0
2016-May-01 17:26 071 4 10.0
2016-May-01 17:21 360 4 10.0
2016-May-01 17:16 036 4 10.0
2016-May-01 17:11 015 5 10.0
2016-May-01 17:01 350 5 10.0
2016-May-01 16:56 338 5 10.6
2016-May-01 16:51 323 4 10.6
2016-May-01 16:46 096 4 10.6
2016-May-01 16:41 037 5 10.6
2016-May-01 16:31 026 3 11.1
2016-May-01 16:26 022 4 11.1
2016-May-01 16:21 037 5 11.1
2016-May-01 16:16 013 4 11.1
2016-May-01 16:11 023 4 11.1
2016-May-01 16:06 071 2 11.7
2016-May-01 16:01 069 3 11.1
2016-May-01 15:56 071 5 11.1
2016-May-01 15:51 046 4 11.1
2016-May-01 15:46 005 3 11.7
2016-May-01 15:41 039 4 11.7
2016-May-01 15:31 339 5 12.2
2016-May-01 15:26 044 5 12.2
2016-May-01 15:21 052 3 12.2
2016-May-01 15:16 034 4 12.8
2016-May-01 15:06 071 2 12.8
2016-May-01 15:01 062 2 13.3
2016-May-01 14:56 068 3 12.8
2016-May-01 14:51 017 3 12.8
2016-May-01 14:26 074 3 13.3
2016-May-01 14:16 063 3 13.3
2016-May-01 14:11 015 4 13.3
2016-May-01 14:06 038 3 13.3
2016-May-01 14:01 018 2 13.3